Aérodrome :
LOGIN :

S'inscrire | Disclaimer

   EN    FR    IT 

 










Légende :    VFR   VFR Marginal   IFR   IFR Intensif   IFR Très Intensif
Visi : 
Plafond : 
>= 8 km
>= 3000ft
5 à 8 km
1000 à 3000 ft
1500m à 5 km
500 à 1000 ft
800 à 1500m
200 à 500 ft
< 800m
< 200 ft
Symboles :   Orages  Brouillard  Fortes neiges  Fortes précipitations  Vent > 20 kt
SIGMETs :   Divers  Orages  Givrage  Turbulence  Onde Orograph.  Cendres Volcan.






- Altitude de l'aérodrome : 443 ft
- Code IATA : GNA


UMMG - Grodno

DERNIER METAR :
  • 290700Z 10004MPS CAVOK 10/08 Q1016 R35/CLRD// NOSIG

METARs EXPIRÉS :
  • 290630Z 09002MPS CAVOK 09/08 Q1016 R35/CLRD// NOSIG
  • 290600Z 09002MPS CAVOK 09/08 Q1016 R35/CLRD// NOSIG
  • 290530Z 05003MPS 9000 NSC 08/06 Q1016 R35/CLRD// NOSIG
  • 290500Z 05003MPS 9000 NSC 08/06 Q1016 NOSIG

TAF TAF UMMG
Valide du 29 à 05h jusqu'au 29 à 15h UTC


290430Z 2905/2915 08003MPS 6000 SCT010
TEMPO 2905/2907 3000 BR FEW005
BECMG 2907/2908 9999 BKN020
TEMPO 2907/2912 10005G10MPS -SHRA SCT016CB
TEMPO 2912/2915 06005G10MPS



MET'MAP, la Météo Aéronautique d'un coup d'oeil ! - Copyright ORBIFLY Décembre 2007 - Disclaimer

ORBIFLY MET'MAP TEAM :

Programmation & Développement : Alexandra Zaïnal
Sur une idée originale de : Baudouin d'Aumeries
Assistance à la programmation : Marc-Olivier Méhu
Soutien technique & logistique : Manuel Goepfert

Contact : metmap@orbifly.com




SOURCES & CREDITS :

   NOAA